Simultaneous Nadir Overpasses (SNOs) Predictions

Prediction of SNOs between NOAA-20 and NOAA-19 Satellite Orbit:

Table of predicted SNOs for the next 14.0 days since TLE Epoch: 12/26/2020
Index Date (NOAA-20) Time (NOAA-20) Lat,Lon (NOAA-20) SZA (NOAA-20 ) Date (NOAA-19) Time (NOAA-19) Lat,Lon (NOAA-19) SZA (NOAA-19 ) Distance(km) Time Diff (sec)
1 12/26/2020 02:59:40 -78.75, -74.00 76.62 12/26/2020 02:58:31 -78.78, -74.04 76.57 2.68 69
2 12/26/2020 03:50:26 78.77, 93.21 103.41 12/26/2020 03:49:32 78.79, 93.31 103.44 3.11 54
3 12/26/2020 04:41:10 -78.76, -99.39 76.61 12/26/2020 04:40:31 -78.79, -99.43 76.57 3.92 39
4 12/26/2020 05:31:56 78.77, 67.82 103.41 12/26/2020 05:31:33 78.77, 67.68 103.43 3.04 23
5 12/26/2020 06:22:41 -78.80,-125.03 76.56 12/26/2020 06:22:32 -78.77,-125.06 76.57 2.78 9
6 12/26/2020 07:13:26 78.78, 42.42 103.42 12/26/2020 07:13:33 78.79, 42.29 103.44 3.06 7
7 12/26/2020 08:04:11 -78.80,-150.42 76.55 12/26/2020 08:04:32 -78.79,-150.45 76.57 1.47 21
8 12/26/2020 08:54:57 78.82, 16.79 103.47 12/26/2020 08:55:33 78.80, 16.91 103.44 3.05 36
9 12/26/2020 09:45:41 -78.80,-175.82 76.55 12/26/2020 09:46:32 -78.80,-175.84 76.57 0.41 51
10 12/26/2020 10:36:26 78.82, -8.61 103.48 12/26/2020 10:37:32 78.82, -8.47 103.44 2.99 66



Historial Predications of SNOs between NOAA-20 and NOAA-19
